Year,Month,Day,Hour,Minute,Value (Times are PST for temperature in C)
2008,07,09,00,00,15.60
2008,07,09,00,01,15.50
2008,07,09,00,02,15.50
2008,07,09,00,03,15.50
2008,07,09,00,04,15.40
2008,07,09,00,05,15.40
2008,07,09,00,06,15.40
2008,07,09,00,07,15.40
2008,07,09,00,08,15.30
2008,07,09,00,09,15.30
2008,07,09,00,10,15.30
2008,07,09,00,11,15.30
2008,07,09,00,12,15.30
2008,07,09,01,02,14.60
2008,07,09,01,03,14.50
2008,07,09,01,04,14.50
2008,07,09,01,05,14.40
2008,07,09,01,06,14.40
2008,07,09,01,07,14.40
2008,07,09,01,08,14.40
2008,07,09,01,09,14.30
2008,07,09,01,10,14.30
2008,07,09,01,11,14.30
2008,07,09,01,12,14.30
2008,07,09,01,13,14.30
2008,07,09,01,14,14.20
2008,07,09,01,15,14.20
2008,07,09,01,16,14.20
2008,07,09,01,17,14.20
2008,07,09,01,18,14.20
2008,07,09,01,19,14.20
2008,07,09,01,20,14.20
2008,07,09,01,21,14.20
2008,07,09,01,22,14.20
2008,07,09,01,23,14.10
2008,07,09,01,24,14.10
2008,07,09,01,25,14.10
2008,07,09,01,26,14.10
2008,07,09,01,27,14.10
2008,07,09,01,28,14.10
2008,07,09,01,29,14.00
2008,07,09,01,30,14.00
2008,07,09,01,31,14.00
2008,07,09,01,32,13.90
2008,07,09,01,33,13.90
2008,07,09,01,34,13.90
2008,07,09,01,35,13.90
2008,07,09,01,36,13.80
2008,07,09,01,37,13.80
2008,07,09,01,38,13.80
2008,07,09,01,39,13.80
2008,07,09,01,40,13.80
2008,07,09,01,41,13.80
2008,07,09,01,42,13.80
2008,07,09,01,43,13.70
2008,07,09,01,44,13.70
2008,07,09,01,45,13.70
2008,07,09,01,46,13.70
2008,07,09,01,47,13.70
2008,07,09,01,48,13.60
2008,07,09,01,49,13.60
2008,07,09,01,50,13.60
2008,07,09,01,51,13.60
2008,07,09,01,52,13.60
2008,07,09,01,53,13.60
2008,07,09,01,54,13.60
2008,07,09,01,55,13.60
2008,07,09,01,56,13.60
2008,07,09,01,57,13.60
2008,07,09,01,58,13.60
2008,07,09,01,59,13.60
2008,07,09,02,00,13.60
2008,07,09,02,01,13.60
2008,07,09,02,02,13.60
2008,07,09,02,03,13.60
2008,07,09,02,04,13.60
2008,07,09,02,05,13.50
2008,07,09,02,06,13.50
2008,07,09,02,07,13.50
2008,07,09,02,08,13.50
2008,07,09,02,09,13.50
2008,07,09,02,10,13.40
2008,07,09,02,11,13.40
2008,07,09,02,12,13.40
2008,07,09,02,13,13.40
2008,07,09,02,14,13.40
2008,07,09,02,15,13.40
2008,07,09,02,16,13.40
2008,07,09,02,17,13.40
2008,07,09,02,18,13.40
2008,07,09,02,19,13.40
2008,07,09,02,20,13.40
2008,07,09,02,21,13.40
2008,07,09,02,22,13.40
2008,07,09,02,23,13.30
2008,07,09,02,24,13.30
2008,07,09,02,25,13.30
2008,07,09,02,26,13.30
2008,07,09,02,27,13.30
2008,07,09,02,28,13.30
2008,07,09,02,29,13.20
2008,07,09,02,30,13.20
2008,07,09,02,31,13.20
2008,07,09,02,32,13.20
2008,07,09,02,33,13.20
2008,07,09,02,34,13.20
2008,07,09,02,35,13.10
2008,07,09,02,36,13.10
2008,07,09,02,37,13.10
2008,07,09,02,38,13.10
2008,07,09,02,39,13.10
2008,07,09,02,40,13.00
2008,07,09,02,41,13.00
2008,07,09,02,42,13.00
2008,07,09,02,43,12.90
2008,07,09,02,44,12.90
2008,07,09,02,45,12.90
2008,07,09,02,46,12.90
2008,07,09,02,47,12.90
2008,07,09,02,48,12.80
2008,07,09,02,49,12.80
2008,07,09,02,50,12.80
2008,07,09,02,51,12.80
2008,07,09,02,52,12.80
2008,07,09,02,53,12.80
2008,07,09,02,54,12.80
2008,07,09,02,55,12.80
2008,07,09,02,56,12.80
2008,07,09,02,57,12.70
2008,07,09,02,58,12.70
2008,07,09,02,59,12.70
2008,07,09,03,00,12.70
2008,07,09,03,01,12.70
2008,07,09,03,02,12.70
2008,07,09,03,03,12.70
2008,07,09,03,04,12.70
2008,07,09,03,05,12.70
2008,07,09,03,06,12.70
2008,07,09,03,07,12.70
2008,07,09,03,08,12.70
2008,07,09,03,09,12.70
2008,07,09,03,10,12.70
2008,07,09,03,11,12.70
2008,07,09,03,12,12.70
2008,07,09,03,13,12.70
2008,07,09,03,14,12.70
2008,07,09,03,15,12.70
2008,07,09,03,16,12.70
2008,07,09,03,17,12.70
2008,07,09,03,18,12.70
2008,07,09,03,19,12.70
2008,07,09,03,20,12.70
2008,07,09,03,21,12.60
2008,07,09,03,22,12.60
2008,07,09,03,23,12.60
2008,07,09,03,24,12.60
2008,07,09,03,25,12.60
2008,07,09,03,26,12.60
2008,07,09,03,27,12.60
2008,07,09,03,28,12.60
2008,07,09,03,29,12.50
2008,07,09,03,30,12.50
2008,07,09,03,31,12.50
2008,07,09,03,32,12.50
2008,07,09,03,33,12.50
2008,07,09,03,34,12.40
2008,07,09,03,35,12.40
2008,07,09,03,36,12.40
2008,07,09,03,37,12.40
2008,07,09,03,38,12.40
2008,07,09,03,39,12.40
2008,07,09,03,40,12.40
2008,07,09,03,41,12.40
2008,07,09,03,42,12.40
2008,07,09,03,43,12.40
2008,07,09,03,44,12.40
2008,07,09,03,45,12.40
2008,07,09,03,46,12.30
2008,07,09,03,47,12.30
2008,07,09,03,48,12.30
2008,07,09,03,49,12.30
2008,07,09,03,50,12.30
2008,07,09,03,51,12.30
2008,07,09,03,52,12.30
2008,07,09,03,53,12.30
2008,07,09,03,54,12.30
2008,07,09,03,55,12.30
2008,07,09,03,56,12.30
2008,07,09,03,57,12.30
2008,07,09,03,58,12.30
2008,07,09,03,59,12.20
2008,07,09,04,00,12.20
2008,07,09,04,01,12.20
2008,07,09,04,02,12.20
2008,07,09,04,03,12.20
2008,07,09,04,04,12.20
2008,07,09,04,05,12.20
2008,07,09,04,06,12.20
2008,07,09,04,07,12.10
2008,07,09,04,08,12.10
2008,07,09,04,09,12.10
2008,07,09,04,10,12.10
2008,07,09,04,11,12.10
2008,07,09,04,12,12.10
2008,07,09,04,13,12.10
2008,07,09,04,14,12.10
2008,07,09,04,15,12.10
2008,07,09,04,16,12.10
2008,07,09,04,17,12.00
2008,07,09,04,18,12.00
2008,07,09,04,19,12.00
2008,07,09,04,20,12.00
2008,07,09,04,21,12.00
2008,07,09,04,22,12.00
2008,07,09,04,23,12.00
2008,07,09,04,24,12.00
2008,07,09,04,25,12.00
2008,07,09,04,26,12.00
2008,07,09,04,27,11.90
2008,07,09,04,28,11.90
2008,07,09,04,29,11.90
2008,07,09,04,30,11.90
2008,07,09,04,31,11.90
2008,07,09,04,32,11.90
2008,07,09,04,33,11.90
2008,07,09,04,34,11.90
2008,07,09,04,35,11.90
2008,07,09,04,36,11.80
2008,07,09,04,37,11.80
2008,07,09,04,38,11.80
2008,07,09,04,39,11.80
2008,07,09,04,40,11.80
2008,07,09,04,41,11.80
2008,07,09,04,42,11.80
2008,07,09,04,43,11.80
2008,07,09,04,44,11.80
2008,07,09,04,45,11.80
2008,07,09,04,46,11.70
2008,07,09,04,47,11.70
2008,07,09,04,48,11.80
2008,07,09,04,49,11.80
2008,07,09,04,50,11.70
2008,07,09,04,51,11.70
2008,07,09,04,52,11.70
2008,07,09,04,53,11.70
2008,07,09,04,54,11.70
2008,07,09,04,55,11.70
2008,07,09,04,56,11.70
2008,07,09,04,57,11.70
2008,07,09,04,58,11.60
2008,07,09,04,59,11.60
2008,07,09,05,00,11.60
2008,07,09,05,01,11.60
2008,07,09,05,02,11.60
2008,07,09,05,03,11.60
2008,07,09,05,04,11.60
2008,07,09,05,05,11.60
2008,07,09,05,06,11.60
2008,07,09,05,07,11.60
2008,07,09,05,08,11.60
2008,07,09,05,09,11.60
2008,07,09,05,10,11.60
2008,07,09,05,11,11.60
2008,07,09,05,12,11.60
2008,07,09,05,13,11.60
2008,07,09,05,14,11.60
2008,07,09,05,15,11.60
2008,07,09,05,16,11.60
2008,07,09,05,17,11.60
2008,07,09,05,18,11.60
2008,07,09,05,19,11.60
2008,07,09,05,20,11.60
2008,07,09,05,21,11.60
2008,07,09,05,22,11.60
2008,07,09,05,23,11.60
2008,07,09,05,24,11.60
2008,07,09,05,25,11.60
2008,07,09,05,26,11.60
2008,07,09,05,27,11.60
2008,07,09,05,28,11.60
2008,07,09,05,29,11.70
2008,07,09,05,30,11.70
2008,07,09,05,31,11.60
2008,07,09,05,32,11.60
2008,07,09,05,33,11.60
2008,07,09,05,34,11.60
2008,07,09,05,35,11.60
2008,07,09,05,36,11.60
2008,07,09,05,37,11.60
2008,07,09,05,38,11.60
2008,07,09,05,39,11.60
2008,07,09,05,40,11.60
2008,07,09,05,41,11.60
2008,07,09,05,42,11.60
2008,07,09,05,43,11.60
2008,07,09,05,44,11.60
2008,07,09,05,45,11.60
2008,07,09,05,46,11.60
2008,07,09,05,47,11.50
2008,07,09,05,48,11.50
2008,07,09,05,49,11.50
2008,07,09,05,50,11.50
2008,07,09,05,51,11.50
2008,07,09,05,52,11.50
2008,07,09,05,53,11.50
2008,07,09,05,54,11.50
2008,07,09,05,55,11.50
2008,07,09,05,56,11.50
2008,07,09,05,57,11.50
2008,07,09,05,58,11.50
2008,07,09,05,59,11.50
2008,07,09,06,00,11.50
2008,07,09,06,01,11.60
2008,07,09,06,02,11.60
2008,07,09,06,03,11.60
2008,07,09,06,04,11.60
2008,07,09,06,05,11.50
2008,07,09,06,06,11.50
2008,07,09,06,07,11.50
2008,07,09,06,08,11.50
2008,07,09,06,09,11.50
2008,07,09,06,10,11.50
2008,07,09,06,11,11.50
2008,07,09,06,12,11.60
2008,07,09,06,13,11.60
2008,07,09,06,14,11.60
2008,07,09,06,15,11.60
2008,07,09,06,16,11.60
2008,07,09,06,17,11.60
2008,07,09,06,18,11.60
2008,07,09,06,19,11.70
2008,07,09,06,20,11.70
2008,07,09,06,21,11.70
2008,07,09,06,22,11.70
2008,07,09,06,23,11.70
2008,07,09,06,24,11.70
2008,07,09,06,25,11.70
2008,07,09,06,26,11.80
2008,07,09,06,27,11.80
2008,07,09,06,28,11.80
2008,07,09,06,29,11.80
2008,07,09,06,30,11.90
2008,07,09,06,31,11.90
2008,07,09,06,32,12.00
2008,07,09,06,33,12.00
2008,07,09,06,34,12.10
2008,07,09,06,35,12.10
2008,07,09,06,36,12.10
2008,07,09,06,37,12.10
2008,07,09,06,38,12.10
2008,07,09,06,39,12.20
2008,07,09,06,40,12.20
2008,07,09,06,41,12.20
2008,07,09,06,42,12.20
2008,07,09,06,43,12.20
2008,07,09,06,44,12.30
2008,07,09,06,45,12.30
2008,07,09,06,46,12.30
2008,07,09,06,47,12.40
2008,07,09,06,48,12.40
2008,07,09,06,49,12.50
2008,07,09,06,50,12.50
2008,07,09,06,51,12.60
2008,07,09,06,52,12.60
2008,07,09,06,53,12.70
2008,07,09,06,54,12.70
2008,07,09,06,55,12.80
2008,07,09,06,56,12.80
2008,07,09,06,57,12.90
2008,07,09,06,58,12.90
2008,07,09,06,59,13.00
2008,07,09,07,00,13.00
2008,07,09,07,01,13.10
2008,07,09,07,02,13.10
2008,07,09,07,03,13.20
2008,07,09,07,04,13.20
2008,07,09,07,05,13.30
2008,07,09,07,06,13.40
2008,07,09,07,07,13.50
2008,07,09,07,08,13.60
2008,07,09,07,09,13.60
2008,07,09,07,10,13.70
2008,07,09,07,11,13.80
2008,07,09,07,12,13.80
2008,07,09,07,13,13.90
2008,07,09,07,14,14.10
2008,07,09,07,15,14.20
2008,07,09,07,16,14.40
2008,07,09,07,17,14.50
2008,07,09,07,18,14.70
2008,07,09,07,19,14.80
2008,07,09,07,20,15.00
2008,07,09,07,21,15.00
2008,07,09,07,22,15.00
2008,07,09,07,23,15.10
2008,07,09,07,24,15.20
2008,07,09,07,25,15.30
2008,07,09,07,26,15.50
2008,07,09,07,27,15.60
2008,07,09,07,28,15.70
2008,07,09,07,29,15.90
2008,07,09,07,30,16.00
2008,07,09,07,31,16.20
2008,07,09,07,32,16.30
2008,07,09,07,33,16.50
2008,07,09,07,34,16.60
2008,07,09,07,35,16.80
2008,07,09,07,36,17.00
2008,07,09,07,37,17.10
2008,07,09,07,38,17.30
2008,07,09,07,39,17.40
2008,07,09,07,40,17.50
2008,07,09,07,41,17.60
2008,07,09,07,42,17.70
2008,07,09,07,43,17.70
2008,07,09,07,44,17.70
2008,07,09,07,45,17.70
2008,07,09,07,46,17.70
2008,07,09,07,47,17.60
2008,07,09,07,48,17.60
2008,07,09,07,49,17.60
2008,07,09,07,50,17.60
2008,07,09,07,51,17.60
2008,07,09,07,52,17.60
2008,07,09,07,53,17.50
2008,07,09,07,54,17.60
2008,07,09,07,55,17.60
2008,07,09,07,56,17.70
2008,07,09,07,57,17.80
2008,07,09,07,58,17.80
2008,07,09,07,59,17.90
2008,07,09,08,00,17.90
2008,07,09,08,01,17.90
2008,07,09,08,02,18.00
2008,07,09,08,03,18.00
2008,07,09,08,04,18.00
2008,07,09,08,05,18.00
2008,07,09,08,06,18.10
2008,07,09,08,07,18.10
2008,07,09,08,08,18.20
2008,07,09,08,09,18.20
2008,07,09,08,10,18.30
2008,07,09,08,11,18.30
2008,07,09,08,12,18.30
2008,07,09,08,13,18.30
2008,07,09,08,14,18.30
2008,07,09,08,15,18.40
2008,07,09,08,16,18.40
2008,07,09,08,17,18.40
2008,07,09,08,18,18.40
2008,07,09,08,19,18.30
2008,07,09,08,20,18.40
2008,07,09,08,21,18.40
2008,07,09,08,22,18.50
2008,07,09,08,23,18.50
2008,07,09,08,24,18.60
2008,07,09,08,25,18.60
2008,07,09,08,26,18.60
2008,07,09,08,27,18.70
2008,07,09,08,28,18.70
2008,07,09,08,29,18.70
2008,07,09,08,30,18.70
2008,07,09,08,31,18.70
2008,07,09,08,32,18.80
2008,07,09,08,33,18.80
2008,07,09,08,34,18.80
2008,07,09,08,35,18.90
2008,07,09,08,36,19.00
2008,07,09,08,37,19.00
2008,07,09,08,38,19.10
2008,07,09,08,39,19.20
2008,07,09,08,40,19.20
2008,07,09,08,41,19.30
2008,07,09,08,42,19.30
2008,07,09,08,43,19.20
2008,07,09,08,44,19.20
2008,07,09,08,45,19.20
2008,07,09,08,46,19.20
2008,07,09,08,47,19.20
2008,07,09,08,48,19.20
2008,07,09,08,49,19.20
2008,07,09,08,50,19.20
2008,07,09,08,51,19.20
2008,07,09,08,52,19.30
2008,07,09,08,53,19.40
2008,07,09,08,54,19.40
2008,07,09,08,55,19.40
2008,07,09,08,56,19.40
2008,07,09,08,57,19.40
2008,07,09,08,58,19.40
2008,07,09,08,59,19.40
2008,07,09,09,00,19.40
2008,07,09,09,01,19.40
2008,07,09,09,02,19.40
2008,07,09,09,03,19.40
2008,07,09,09,04,19.50
2008,07,09,09,05,19.50
2008,07,09,09,06,19.60
2008,07,09,09,07,19.60
2008,07,09,09,08,19.60
2008,07,09,09,09,19.60
2008,07,09,09,10,19.70
2008,07,09,09,11,19.80
2008,07,09,09,12,19.80
2008,07,09,09,13,19.80
2008,07,09,09,14,19.80
2008,07,09,09,15,19.80
2008,07,09,09,16,19.80
2008,07,09,09,17,19.70
2008,07,09,09,18,19.70
2008,07,09,09,19,19.70
2008,07,09,09,20,19.70
2008,07,09,09,21,19.70
2008,07,09,09,22,19.80
2008,07,09,09,23,19.80
2008,07,09,09,24,19.90
2008,07,09,09,25,20.10
2008,07,09,09,26,20.20
2008,07,09,09,27,20.30
2008,07,09,09,28,20.30
2008,07,09,09,29,20.30
2008,07,09,09,30,20.20
2008,07,09,09,31,20.20
2008,07,09,09,32,20.20
2008,07,09,09,33,20.20
2008,07,09,09,34,20.30
2008,07,09,09,35,20.30
2008,07,09,09,36,20.30
2008,07,09,09,37,20.40
2008,07,09,09,38,20.40
2008,07,09,09,39,20.30
2008,07,09,09,40,20.40
2008,07,09,09,41,20.40
2008,07,09,09,42,20.50
2008,07,09,09,43,20.60
2008,07,09,09,44,20.60
2008,07,09,09,45,20.70
2008,07,09,09,46,20.70
2008,07,09,09,47,20.80
2008,07,09,09,48,20.80
2008,07,09,09,49,20.80
2008,07,09,09,50,20.90
2008,07,09,09,51,20.90
2008,07,09,09,52,20.80
2008,07,09,09,53,20.80
2008,07,09,09,54,20.70
2008,07,09,09,55,20.60
2008,07,09,09,56,20.40
2008,07,09,09,57,20.30
2008,07,09,09,58,20.30
2008,07,09,09,59,20.20
2008,07,09,10,00,20.20
2008,07,09,10,01,20.10
2008,07,09,10,02,20.10
2008,07,09,10,03,20.00
2008,07,09,10,04,20.00
2008,07,09,10,05,20.00
2008,07,09,10,06,20.10
2008,07,09,10,07,20.20
2008,07,09,10,08,20.20
2008,07,09,10,09,20.10
2008,07,09,10,10,20.10
2008,07,09,10,11,20.00
2008,07,09,10,12,19.90
2008,07,09,10,13,19.90
2008,07,09,10,14,20.00
2008,07,09,10,15,20.10
2008,07,09,10,16,20.20
2008,07,09,10,17,20.20
2008,07,09,10,18,20.20
2008,07,09,10,19,20.20
2008,07,09,10,20,20.30
2008,07,09,10,21,20.40
2008,07,09,10,22,20.40
2008,07,09,10,23,20.50
2008,07,09,10,24,20.50
2008,07,09,10,25,20.40
2008,07,09,10,26,20.30
2008,07,09,10,27,20.20
2008,07,09,10,28,20.20
2008,07,09,10,29,20.20
2008,07,09,10,30,20.10
2008,07,09,10,31,20.00
2008,07,09,10,32,20.00
2008,07,09,10,33,20.00
2008,07,09,10,34,19.90
2008,07,09,10,35,19.90
2008,07,09,10,36,20.00
2008,07,09,10,37,20.10
2008,07,09,10,38,20.10
2008,07,09,10,39,20.10
2008,07,09,10,40,20.20
2008,07,09,10,41,20.30
2008,07,09,10,42,20.30
2008,07,09,10,43,20.20
2008,07,09,10,44,20.30
2008,07,09,10,45,20.30
2008,07,09,10,46,20.30
2008,07,09,10,47,20.20
2008,07,09,10,48,20.20
2008,07,09,10,49,20.30
2008,07,09,10,50,20.30
2008,07,09,10,51,20.30
2008,07,09,10,52,20.40
2008,07,09,10,53,20.30
2008,07,09,10,54,20.30
2008,07,09,10,55,20.30
2008,07,09,10,56,20.30
2008,07,09,10,57,20.20
2008,07,09,10,58,20.20
2008,07,09,10,59,20.20
2008,07,09,11,00,20.30
2008,07,09,11,01,20.40
2008,07,09,11,02,20.50
2008,07,09,11,03,20.60
2008,07,09,11,04,20.60
2008,07,09,11,05,20.70
2008,07,09,11,06,20.80
2008,07,09,11,07,20.80
2008,07,09,11,08,20.90
2008,07,09,11,09,20.90
2008,07,09,11,10,20.80
2008,07,09,11,11,20.80
2008,07,09,11,12,20.70
2008,07,09,11,13,20.70
2008,07,09,11,14,20.70
2008,07,09,11,15,20.60
2008,07,09,11,16,20.50
2008,07,09,11,17,20.40
2008,07,09,11,18,20.40
2008,07,09,11,19,20.40
2008,07,09,11,20,20.40
2008,07,09,11,21,20.50
2008,07,09,11,22,20.60
2008,07,09,11,23,20.80
2008,07,09,11,24,20.80
2008,07,09,11,25,20.90
2008,07,09,11,26,20.80
2008,07,09,11,27,20.80
2008,07,09,11,28,20.80
2008,07,09,11,29,20.70
2008,07,09,11,30,20.60
2008,07,09,11,31,20.60
2008,07,09,11,32,20.50
2008,07,09,11,33,20.40
2008,07,09,11,34,20.40
2008,07,09,11,35,20.40
2008,07,09,11,36,20.40
2008,07,09,11,37,20.40
2008,07,09,11,38,20.50
2008,07,09,11,39,20.60
2008,07,09,11,40,20.70
2008,07,09,11,41,20.60
2008,07,09,11,42,20.60
2008,07,09,11,43,20.50
2008,07,09,11,44,20.40
2008,07,09,11,45,20.30
2008,07,09,11,46,20.30
2008,07,09,11,47,20.30
2008,07,09,11,48,20.30
2008,07,09,11,49,20.20
2008,07,09,11,50,20.30
2008,07,09,11,51,20.30
2008,07,09,11,52,20.40
2008,07,09,11,53,20.50
2008,07,09,11,54,20.50
2008,07,09,11,55,20.60
2008,07,09,11,56,20.70
2008,07,09,11,57,20.80
2008,07,09,11,58,20.80
2008,07,09,11,59,20.80
2008,07,09,12,00,20.80
2008,07,09,12,01,20.80
2008,07,09,12,02,20.80
2008,07,09,12,03,20.90
2008,07,09,12,04,20.90
2008,07,09,12,05,20.80
2008,07,09,12,06,20.90
2008,07,09,12,07,21.00
2008,07,09,12,08,21.00
2008,07,09,12,09,20.90
2008,07,09,12,10,20.80
2008,07,09,12,11,20.70
2008,07,09,12,12,20.60
2008,07,09,12,13,20.60
2008,07,09,12,14,20.60
2008,07,09,12,15,20.60
2008,07,09,12,16,20.70
2008,07,09,12,17,20.80
2008,07,09,12,18,20.90
2008,07,09,12,19,21.00
2008,07,09,12,20,21.10
2008,07,09,12,21,21.20
2008,07,09,12,22,21.20
2008,07,09,12,23,21.10
2008,07,09,12,24,21.10
2008,07,09,12,25,21.10
2008,07,09,12,26,21.20
2008,07,09,12,27,21.30
2008,07,09,12,28,21.40
2008,07,09,12,29,21.50
2008,07,09,12,30,21.60
2008,07,09,12,31,21.70
2008,07,09,12,32,21.80
2008,07,09,12,33,21.80
2008,07,09,12,34,21.80
2008,07,09,12,35,21.80
2008,07,09,12,36,21.80
2008,07,09,12,37,21.70
2008,07,09,12,38,21.70
2008,07,09,12,39,21.80
2008,07,09,12,40,21.70
2008,07,09,12,41,21.60
2008,07,09,12,42,21.50
2008,07,09,12,43,21.50
2008,07,09,12,44,21.40
2008,07,09,12,45,21.30
2008,07,09,12,46,21.20
2008,07,09,12,47,21.20
2008,07,09,12,48,21.20
2008,07,09,12,49,21.20
2008,07,09,12,50,21.20
2008,07,09,12,51,21.20
2008,07,09,12,52,21.20
2008,07,09,12,53,21.20
2008,07,09,12,54,21.10
2008,07,09,12,55,21.10
2008,07,09,12,56,21.10
2008,07,09,12,57,21.00
2008,07,09,12,58,20.90
2008,07,09,12,59,20.80
2008,07,09,13,00,20.80
2008,07,09,13,01,20.80
2008,07,09,13,02,20.80
2008,07,09,13,03,20.80
2008,07,09,13,04,20.90
2008,07,09,13,05,21.00
2008,07,09,13,06,21.10
2008,07,09,13,07,21.30
2008,07,09,13,08,21.50
2008,07,09,13,09,21.60
2008,07,09,13,10,21.60
2008,07,09,13,11,21.40
2008,07,09,13,12,21.30
2008,07,09,13,13,21.30
2008,07,09,13,14,21.30
2008,07,09,13,15,21.20
2008,07,09,13,16,21.20
2008,07,09,13,17,21.40
2008,07,09,13,18,21.50
2008,07,09,13,19,21.70
2008,07,09,13,20,21.90
2008,07,09,13,21,22.10
2008,07,09,13,22,22.20
2008,07,09,13,23,22.40
2008,07,09,13,24,22.50
2008,07,09,13,25,22.50
2008,07,09,13,26,22.40
2008,07,09,13,27,22.30
2008,07,09,13,28,22.20
2008,07,09,13,29,22.10
2008,07,09,13,30,21.90
2008,07,09,13,31,21.80
2008,07,09,13,32,21.70
2008,07,09,13,33,21.60
2008,07,09,13,34,21.60
2008,07,09,13,35,21.70
2008,07,09,13,36,21.60
2008,07,09,13,37,21.70
2008,07,09,13,38,21.80
2008,07,09,13,39,21.80
2008,07,09,13,40,21.80
2008,07,09,13,41,21.80
2008,07,09,13,42,21.80
2008,07,09,13,43,21.80
2008,07,09,13,44,21.80
2008,07,09,13,45,21.80
2008,07,09,13,46,21.80
2008,07,09,13,47,21.70
2008,07,09,13,48,21.70
2008,07,09,13,49,21.80
2008,07,09,13,50,21.80
2008,07,09,13,51,21.80
2008,07,09,13,52,21.80
2008,07,09,13,53,21.80
2008,07,09,13,54,21.70
2008,07,09,13,55,21.80
2008,07,09,13,56,21.80
2008,07,09,13,57,21.80
2008,07,09,13,58,21.90
2008,07,09,13,59,22.10
2008,07,09,14,00,22.10
2008,07,09,14,01,22.20
2008,07,09,14,02,22.10
2008,07,09,14,03,22.00
2008,07,09,14,04,22.00
2008,07,09,14,05,22.10
2008,07,09,14,06,22.10
2008,07,09,14,07,22.00
2008,07,09,14,08,21.90
2008,07,09,14,09,21.80
2008,07,09,14,10,21.60
2008,07,09,14,11,21.40
2008,07,09,14,12,21.30
2008,07,09,14,13,21.30
2008,07,09,14,14,21.30
2008,07,09,14,15,21.30
2008,07,09,14,16,21.40
2008,07,09,14,17,21.50
2008,07,09,14,18,21.60
2008,07,09,14,19,21.60
2008,07,09,14,20,21.60
2008,07,09,14,21,21.70
2008,07,09,14,22,21.80
2008,07,09,14,23,21.80
2008,07,09,14,24,21.80
2008,07,09,14,25,21.70
2008,07,09,14,26,21.70
2008,07,09,14,27,21.80
2008,07,09,14,28,21.70
2008,07,09,14,29,21.70
2008,07,09,14,30,21.80
2008,07,09,14,31,21.90
2008,07,09,14,32,21.90
2008,07,09,14,33,21.90
2008,07,09,14,34,22.00
2008,07,09,14,35,22.10
2008,07,09,14,36,22.00
2008,07,09,14,37,22.00
2008,07,09,14,38,22.00
2008,07,09,14,39,22.10
2008,07,09,14,40,22.10
2008,07,09,14,41,22.10
2008,07,09,14,42,22.10
2008,07,09,14,43,22.10
2008,07,09,14,44,22.30
2008,07,09,14,45,22.30
2008,07,09,14,46,22.30
2008,07,09,14,47,22.30
2008,07,09,14,48,22.30
2008,07,09,14,49,22.20
2008,07,09,14,50,22.10
2008,07,09,14,51,22.00
2008,07,09,14,52,22.10
2008,07,09,14,53,22.10
2008,07,09,14,54,22.20
2008,07,09,14,55,22.20
2008,07,09,14,56,22.20
2008,07,09,14,57,22.20
2008,07,09,14,58,22.20
2008,07,09,14,59,22.30
2008,07,09,15,00,22.30
2008,07,09,15,01,22.40
2008,07,09,15,02,22.50
2008,07,09,15,03,22.60
2008,07,09,15,04,22.70
2008,07,09,15,05,22.80
2008,07,09,15,06,22.80
2008,07,09,15,07,22.90
2008,07,09,15,08,22.90
2008,07,09,15,09,22.90
2008,07,09,15,10,22.90
2008,07,09,15,11,22.80
2008,07,09,15,12,22.80
2008,07,09,15,13,22.70
2008,07,09,15,14,22.60
2008,07,09,15,15,22.40
2008,07,09,15,16,22.40
2008,07,09,15,17,22.40
2008,07,09,15,18,22.30
2008,07,09,15,19,22.20
2008,07,09,15,20,22.20
2008,07,09,15,21,22.20
2008,07,09,15,22,22.10
2008,07,09,15,23,22.20
2008,07,09,15,24,22.30
2008,07,09,15,25,22.30
2008,07,09,15,26,22.30
2008,07,09,15,27,22.30
2008,07,09,15,28,22.30
2008,07,09,15,29,22.30
2008,07,09,15,30,22.30
2008,07,09,15,31,22.30
2008,07,09,15,32,22.30
2008,07,09,15,33,22.30
2008,07,09,15,34,22.40
2008,07,09,15,35,22.50
2008,07,09,15,36,22.70
2008,07,09,15,37,22.80
2008,07,09,15,38,23.00
2008,07,09,15,39,23.10
2008,07,09,15,40,23.10
2008,07,09,15,41,23.20
2008,07,09,15,42,23.30
2008,07,09,15,43,23.40
2008,07,09,15,44,23.40
2008,07,09,15,45,23.40
2008,07,09,15,46,23.40
2008,07,09,15,47,23.30
2008,07,09,15,48,23.20
2008,07,09,15,49,23.20
2008,07,09,15,50,23.30
2008,07,09,15,51,23.30
2008,07,09,15,52,23.30
2008,07,09,15,53,23.30
2008,07,09,15,54,23.40
2008,07,09,15,55,23.40
2008,07,09,15,56,23.40
2008,07,09,15,57,23.40
2008,07,09,15,58,23.50
2008,07,09,15,59,23.40
2008,07,09,16,00,23.20
2008,07,09,16,01,23.10
2008,07,09,16,02,23.00
2008,07,09,16,03,22.90
2008,07,09,16,04,22.90
2008,07,09,16,05,22.90
2008,07,09,16,06,23.00
2008,07,09,16,07,23.10
2008,07,09,16,08,23.20
2008,07,09,16,09,23.40
2008,07,09,16,10,23.50
2008,07,09,16,11,23.60
2008,07,09,16,12,23.60
2008,07,09,16,13,23.70
2008,07,09,16,14,23.70
2008,07,09,16,15,23.80
2008,07,09,16,16,23.80
2008,07,09,16,17,24.00
2008,07,09,16,18,24.10
2008,07,09,16,19,24.10
2008,07,09,16,20,24.00
2008,07,09,16,21,23.70
2008,07,09,16,22,23.30
2008,07,09,16,23,22.90
2008,07,09,16,24,22.80
2008,07,09,16,25,22.60
2008,07,09,16,26,22.60
2008,07,09,16,27,22.50
2008,07,09,16,28,22.40
2008,07,09,16,29,22.20
2008,07,09,16,30,22.10
2008,07,09,16,31,22.00
2008,07,09,16,32,21.90
2008,07,09,16,33,21.80
2008,07,09,16,34,21.70
2008,07,09,16,35,21.70
2008,07,09,16,36,21.70
2008,07,09,16,37,21.80
2008,07,09,16,38,21.80
2008,07,09,16,39,21.90
2008,07,09,16,40,22.00
2008,07,09,16,41,22.00
2008,07,09,16,42,22.00
2008,07,09,16,43,22.00
2008,07,09,16,44,21.90
2008,07,09,16,45,21.80
2008,07,09,16,46,21.80
2008,07,09,16,47,21.80
2008,07,09,16,48,21.50
2008,07,09,16,49,21.30
2008,07,09,16,50,21.20
2008,07,09,16,51,21.00
2008,07,09,16,52,20.80
2008,07,09,16,53,20.70
2008,07,09,16,54,20.40
2008,07,09,16,55,20.30
2008,07,09,16,56,20.30
2008,07,09,16,57,20.30
2008,07,09,16,58,20.40
2008,07,09,16,59,20.40
2008,07,09,17,00,20.40
2008,07,09,17,01,20.50
2008,07,09,17,02,20.50
2008,07,09,17,03,20.40
2008,07,09,17,04,20.40
2008,07,09,17,05,20.30
2008,07,09,17,06,20.30
2008,07,09,17,07,20.30
2008,07,09,17,08,20.20
2008,07,09,17,09,20.20
2008,07,09,17,10,20.20
2008,07,09,17,11,20.20
2008,07,09,17,12,20.20
2008,07,09,17,13,20.30
2008,07,09,17,14,20.30
2008,07,09,17,15,20.30
2008,07,09,17,16,20.40
2008,07,09,17,17,20.40
2008,07,09,17,18,20.50
2008,07,09,17,19,20.60
2008,07,09,17,20,20.60
2008,07,09,17,21,20.70
2008,07,09,17,22,20.70
2008,07,09,17,23,20.80
2008,07,09,17,24,20.90
2008,07,09,17,25,21.00
2008,07,09,17,26,21.10
2008,07,09,17,27,21.10
2008,07,09,17,28,21.20
2008,07,09,17,29,21.30
2008,07,09,17,30,21.30
2008,07,09,17,31,21.30
2008,07,09,17,32,21.40
2008,07,09,17,33,21.40
2008,07,09,17,34,21.40
2008,07,09,17,35,21.30
2008,07,09,17,36,21.40
2008,07,09,17,37,21.40
2008,07,09,17,38,21.50
2008,07,09,17,39,21.60
2008,07,09,17,40,21.70
2008,07,09,17,41,21.80
2008,07,09,17,42,21.80
2008,07,09,17,43,21.80
2008,07,09,17,44,21.80
2008,07,09,17,45,21.80
2008,07,09,17,46,21.80
2008,07,09,17,47,21.80
2008,07,09,17,48,21.90
2008,07,09,17,49,21.90
2008,07,09,17,50,22.00
2008,07,09,17,51,22.00
2008,07,09,17,52,22.10
2008,07,09,17,53,22.10
2008,07,09,17,54,22.20
2008,07,09,17,55,22.20
2008,07,09,17,56,22.20
2008,07,09,17,57,22.20
2008,07,09,17,58,22.20
2008,07,09,17,59,22.30
2008,07,09,18,00,22.30
2008,07,09,18,01,22.40
2008,07,09,18,02,22.40
2008,07,09,18,03,22.50
2008,07,09,18,04,22.60
2008,07,09,18,05,22.60
2008,07,09,18,06,22.70
2008,07,09,18,07,22.70
2008,07,09,18,08,22.70